{"data":{"norad_id":43450,"epoch":"2026-09-19T21:01:50.463264Z","epoch_age_seconds":79671,"freshness":"FRESH","line1":"1 43450U 18041A   26262.87627851 -.00000322  00000+0  00000+0 0  9998","line2":"2 43450   0.0525 314.0023 0001847 273.0477 221.2172  1.00271286 30763","mean_motion":1.00271286,"eccentricity":0.0001847,"inclination_deg":0.0525,"raan_deg":314.0023,"arg_perigee_deg":273.0477,"mean_anomaly_deg":221.2172,"bstar":0,"rev_number":3076,"period_min":1436.1040507648,"perigee_km":35778.946997754,"apogee_km":35794.522701416,"semimajor_km":42164.871849585,"source":"CELESTRAK","updated_at":"2026-09-20T09:00:35.260517Z"}}